Location: Black Swamp Observatory
(41.3920°N, 84.1250°W)
Time: 12:39:04
(UTC-04:00)

Vanguard 2 - Pass Details

Date: 27 January 2022
Orbit: 552 x 2935 km, 32.9° (Epoch: 24 May)

Event Time Altitude Azimuth Distance (km) Brightness Sun altitude
Exits shadow 03:18:41 14° 170° (S) 5,405 11.7 -50.8°
Drops below altitude 10° 03:20:35 10° 165° (SSE) 5,688 11.8 -50.5°
Sets 03:25:50 0° 155° (SSE) 6,548 12.3 -49.5°
